Home   Weather   Richmond Hill   Past weeks

Flag for Canada Past Weather in Richmond Hill, Ontario, Canada — Yesterday and Last 2 Weeks

Now
41 °F

Fog.


Feels Like: 35 °F
Forecast: N/A
Wind: 9 mph from Southeast

Location: Toronto Buttonville

Current Time: Feb 24, 2017 at 4:49:11 pm

Latest Report: Feb 24, 2017 at 4:00 pm


Visibility: 4 mi

Pressure: 29.69 "Hg

Humidity: 93%

Dew Point: 39 °F

Location of Richmond HillLocation

Past Weather in Richmond Hill — Graph

°F

Richmond Hill Temperature Yesterday

Maximum temperature yesterday: 63 °F (at 1:00 pm)
Minimum temperature yesterday: 39 °F (at 10:00 pm)
Average temperature yesterday: 50 °F

High & Low Weather Summary for the Past Weeks

 TemperatureHumidityPressure
High63 °F (Feb 23, 1:00 pm)100% (Feb 21, 11:00 pm)30.40 "Hg (Feb 21, 11:00 pm)
Low12 °F (Feb 14, 2:00 am)42% (Feb 9, 3:00 pm)29.46 "Hg (Feb 15, 4:00 am)
Average32 °F78%29.87 "Hg
* Reported Feb 9 3:00 pm — Feb 24 3:00 pm, Richmond Hill, Weather by CustomWeather, © 2017

Note: Actual official high and low records may vary slightly from our data, if they occured in-between our weather recording intervals... More about our weather records

Advertising

Richmond Hill Weather History for the Previous 24 Hours

Scroll right to see more
 ConditionsComfort  
Time TempWeatherWind HumidityBarometerVisibility
3:00 pm
Fri, Feb 24
41 °FFog.8 mph93%29.71 "Hg4 mi
2:00 pm41 °FFog.9 mph93%29.68 "Hg4 mi
1:00 pm39 °FLow clouds.10 mph93%29.71 "Hg7 mi
12:00 pm39 °FLow clouds.12 mph93%29.75 "Hg10 mi
11:00 am39 °FLow clouds.12 mph93%29.76 "Hg8 mi
10:00 am37 °FLight rain. Low clouds.14 mph93%29.79 "Hg8 mi
9:00 am37 °FLight rain. Fog.13 mph93%29.81 "Hg5 mi
8:00 am39 °FLight rain. Low clouds.13 mph87%29.80 "Hg8 mi
7:35 am39 °FLight rain. Fog.9 mph87%29.83 "Hg5 mi
7:21 am39 °FMostly cloudy.7 mph87%29.81 "Hg15 mi
7:00 am39 °FMostly cloudy.8 mph87%29.81 "Hg15 mi
6:00 am37 °FPassing clouds.9 mph87%29.84 "Hg15 mi
5:00 am37 °FPassing clouds.7 mph87%29.86 "Hg15 mi
4:00 am37 °FMostly cloudy.6 mph87%29.88 "Hg15 mi
3:00 am37 °FPassing clouds.6 mph87%29.90 "Hg15 mi
2:00 am37 °FPassing clouds.3 mph87%29.90 "Hg15 mi
1:00 am39 °FPassing clouds.3 mph81%29.90 "Hg15 mi
12:00 am39 °FPassing clouds.9 mph81%29.89 "Hg15 mi
11:08 pm
Thu, Feb 23
39 °FPassing clouds.5 mph87%29.88 "Hg15 mi
10:23 pm39 °FPartly cloudy.7 mph87%29.87 "Hg15 mi
10:00 pm39 °FPassing clouds.9 mph87%29.88 "Hg15 mi
9:00 pm41 °FPassing clouds.9 mph87%29.88 "Hg15 mi
8:52 pm41 °FPassing clouds.10 mph87%29.87 "Hg15 mi
8:00 pm43 °FPassing clouds.9 mph81%29.85 "Hg15 mi
7:00 pm45 °FPartly cloudy.10 mph76%29.85 "Hg15 mi
6:00 pm46 °FPassing clouds.10 mph76%29.83 "Hg15 mi
5:00 pm50 °FBroken clouds.9 mph67%29.79 "Hg15 mi
4:00 pm52 °FPassing clouds.16 mph67%29.76 "Hg15 mi
Weather by CustomWeather, © 2017

See weather overviewHow to use our weather pages